User: anonymous   Login
Location: Caltech
(34.1382°N, 118.1253°W)
Time: 15:01:12
(UTC-08:00)
Language:

Cosmos 1939 Rocket - Orbit

View from above orbital plane
View from above orbital plane
View from above satellite
View from above satellite

Ground track
Ground track

The orbit data is extracted from the following two-line orbital elements,

1 19046U 88032B   15059.17107616  .00002508  00000-0  19976-3 0  9990
2 19046 097.6215 113.8371 0040694 309.4080 050.3543 15.00636197446577
Epoch (UTC): 28 February 2015 04:06:20
Eccentricity: 0.0040694
inclination: 97.6215°
perigee height: 536 km
apogee height: 593 km
right ascension of ascending node: 113.8371°
argument of perigee: 309.4080°
revolutions per day: 15.00636197
mean anomaly at epoch: 50.3543°
orbit number at epoch: 44657

The dashed part of the orbit path shows where the satellite is in the earth's shadow,  

DLR